| time (UTC) | temp F | wind direction | speed MPH | gust MPH | rain 1hr in | rain 24hr in | rain mn in | humidity % | barometer mb |
| 20260831154237 | 83 | 49 | 1.0 | 3.0 | 0.00 | 0.00 | 0.00 | 72 | 1022.3 |
| 20260831154053 | 83 | 246 | 1.0 | 3.0 | 0.00 | 0.00 | 0.00 | 73 | 1022.3 |
| 20260831153234 | 83 | 169 | 1.0 | 3.0 | 0.00 | 0.00 | 0.00 | 74 | 1022.3 |
| 20260831152729 | 82 | 207 | 1.0 | 3.0 | 0.00 | 0.00 | 0.00 | 75 | 1022.3 |
| 20260831152230 | 82 | 355 | 1.0 | 6.0 | 0.00 | 0.00 | 0.00 | 75 | 1022.4 |
| 20260831151730 | 82 | 28 | 1.0 | 6.0 | 0.00 | 0.00 | 0.00 | 75 | 1022.3 |
| 20260831151546 | 81 | 62 | 1.0 | 3.0 | 0.00 | 0.00 | 0.00 | 76 | 1022.3 |
| 20260831151050 | 81 | 224 | 1.0 | 3.0 | 0.00 | 0.00 | 0.00 | 76 | 1022.4 |
| 20260831150234 | 81 | 155 | 1.0 | 7.0 | 0.00 | 0.00 | 0.00 | 77 | 1022.4 |
| 20260831145734 | 80 | 242 | 2.0 | 7.0 | 0.00 | 0.00 | 0.00 | 78 | 1022.4 |
| 20260831145235 | 80 | 344 | 1.0 | 5.0 | 0.00 | 0.00 | 0.00 | 78 | 1022.4 |
| 20260831144735 | 80 | 301 | 1.0 | 5.0 | 0.00 | 0.00 | 0.00 | 80 | 1022.4 |
| 20260831144235 | 79 | 259 | 1.0 | 5.0 | 0.00 | 0.00 | 0.00 | 81 | 1022.4 |
| 20260831143734 | 79 | 274 | 1.0 | 7.0 | 0.00 | 0.00 | 0.00 | 82 | 1022.4 |
| 20260831143230 | 79 | 183 | 2.0 | 7.0 | 0.00 | 0.00 | 0.00 | 83 | 1022.3 |
| 20260831142730 | 78 | 192 | 2.0 | 7.0 | 0.00 | 0.00 | 0.00 | 83 | 1022.3 |
| 20260831142225 | 78 | 261 | 2.0 | 8.0 | 0.00 | 0.00 | 0.00 | 85 | 1022.2 |
| 20260831141726 | 77 | 237 | 1.0 | 8.0 | 0.00 | 0.00 | 0.00 | 86 | 1022.2 |
| 20260831141224 | 77 | 154 | 1.0 | 4.0 | 0.00 | 0.00 | 0.00 | 88 | 1022.3 |
| 20260831140724 | 76 | 306 | 1.0 | 4.0 | 0.00 | 0.00 | 0.00 | 89 | 1022.3 |
| 20260831140225 | 76 | 252 | 1.0 | 4.0 | 0.00 | 0.00 | 0.00 | 90 | 1022.3 |
| 20260831135721 | 75 | 196 | 1.0 | 3.0 | 0.00 | 0.00 | 0.00 | 92 | 1022.3 |
| 20260831135224 | 75 | 314 | 1.0 | 4.0 | 0.00 | 0.00 | 0.00 | 94 | 1022.2 |
| 20260831134718 | 75 | 281 | 1.0 | 5.0 | 0.00 | 0.00 | 0.00 | 95 | 1022.2 |
| 20260831134215 | 74 | 239 | 1.0 | 5.0 | 0.00 | 0.00 | 0.00 | 95 | 1022.1 |
| 20260831133713 | 74 | 240 | 1.0 | 4.0 | 0.00 | 0.00 | 0.00 | 96 | 1022.1 |
| 20260831133210 | 74 | 225 | 1.0 | 4.0 | 0.00 | 0.00 | 0.00 | 96 | 1022.0 |
| 20260831132712 | 73 | 350 | 1.0 | 5.0 | 0.00 | 0.00 | 0.00 | 96 | 1022.0 |
| 20260831132211 | 73 | 338 | 1.0 | 5.0 | 0.00 | 0.00 | 0.00 | 96 | 1022.1 |
| 20260831131710 | 73 | 240 | 1.0 | 5.0 | 0.00 | 0.00 | 0.00 | 96 | 1022.1 |
| 20260831131209 | 72 | 256 | 1.0 | 5.0 | 0.00 | 0.00 | 0.00 | 97 | 1022.0 |
| 20260831131036 | 72 | 294 | 1.0 | 4.0 | 0.00 | 0.00 | 0.00 | 96 | 1022.1 |
| 20260831130211 | 72 | 254 | 0.0 | 3.0 | 0.00 | 0.00 | 0.00 | 97 | 1022.0 |
| 20260831125707 | 72 | 188 | 0.0 | 3.0 | 0.00 | 0.00 | 0.00 | 96 | 1022.1 |
| 20260831125205 | 71 | 0 | 0.0 | 1.0 | 0.00 | 0.00 | 0.00 | 97 | 1022.1 |
| 20260831124704 | 71 | 284 | 0.0 | 2.0 | 0.00 | 0.00 | 0.00 | 96 | 1022.1 |
| 20260831124209 | 71 | 311 | 0.0 | 2.0 | 0.00 | 0.00 | 0.00 | 96 | 1022.0 |
| 20260831123705 | 70 | 128 | 0.0 | 1.0 | 0.00 | 0.00 | 0.00 | 96 | 1022.0 |
| 20260831123204 | 70 | 128 | 0.0 | 1.0 | 0.00 | 0.00 | 0.00 | 96 | 1021.9 |
| 20260831122947 | 69 | 128 | 0.0 | 1.0 | 0.00 | 0.00 | 0.00 | 96 | 1021.9 |
| 20260831122203 | 69 | 128 | 0.0 | 0.0 | 0.00 | 0.00 | 0.00 | 96 | 1022.0 |
| 20260831121700 | 69 | 128 | 0.0 | 0.0 | 0.00 | 0.00 | 0.00 | 95 | 1022.0 |
| 20260831121159 | 69 | 128 | 0.0 | 0.0 | 0.00 | 0.00 | 0.00 | 95 | 1022.0 |
| 20260831120701 | 68 | 128 | 0.0 | 0.0 | 0.00 | 0.00 | 0.00 | 95 | 1021.9 |
| 20260831120154 | 68 | 128 | 0.0 | 0.0 | 0.00 | 0.00 | 0.00 | 95 | 1022.0 |
| 20260831120006 | 68 | 128 | 0.0 | 0.0 | 0.00 | 0.00 | 0.00 | 95 | 1022.0 |
| 20260831115154 | 68 | 128 | 0.0 | 0.0 | 0.00 | 0.00 | 0.00 | 95 | 1022.0 |
| 20260831114649 | 68 | 128 | 0.0 | 0.0 | 0.00 | 0.00 | 0.00 | 95 | 1022.0 |
| 20260831114147 | 68 | 128 | 0.0 | 0.0 | 0.00 | 0.00 | 0.00 | 95 | 1021.9 |
| 20260831113650 | 68 | 128 | 0.0 | 0.0 | 0.00 | 0.00 | 0.00 | 95 | 1021.9 |
| 20260831113146 | 68 | 128 | 0.0 | 0.0 | 0.00 | 0.00 | 0.00 | 95 | 1021.9 |
| 20260831112646 | 68 | 128 | 0.0 | 0.0 | 0.00 | 0.00 | 0.00 | 95 | 1021.9 |
| 20260831112143 | 68 | 128 | 0.0 | 0.0 | 0.00 | 0.00 | 0.00 | 94 | 1021.8 |
| 20260831111640 | 68 | 128 | 0.0 | 0.0 | 0.00 | 0.00 | 0.00 | 94 | 1021.8 |
| 20260831111359 | 68 | 128 | 0.0 | 0.0 | 0.00 | 0.00 | 0.00 | 94 | 1021.8 |
| 20260831111138 | 68 | 128 | 0.0 | 0.0 | 0.00 | 0.00 | 0.00 | 94 | 1021.8 |
| 20260831110748 | 68 | 128 | 0.0 | 1.0 | 0.00 | 0.00 | 0.00 | 94 | 1021.8 |
| 20260831110729 | 68 | 128 | 0.0 | 0.0 | 0.00 | 0.00 | 0.00 | 94 | 1021.7 |
| 20260831105637 | 68 | 128 | 0.0 | 1.0 | 0.00 | 0.00 | 0.00 | 94 | 1021.8 |
| 20260831105130 | 68 | 128 | 0.0 | 0.0 | 0.00 | 0.00 | 0.00 | 94 | 1021.7 |
| 20260831104631 | 68 | 128 | 0.0 | 0.0 | 0.00 | 0.00 | 0.00 | 94 | 1021.7 |
| 20260831104131 | 68 | 128 | 0.0 | 0.0 | 0.00 | 0.00 | 0.00 | 94 | 1021.7 |
| 20260831103630 | 68 | 128 | 0.0 | 0.0 | 0.00 | 0.00 | 0.00 | 94 | 1021.6 |
| 20260831103443 | 68 | 128 | 0.0 | 0.0 | 0.00 | 0.00 | 0.00 | 94 | 1021.7 |
| 20260831102629 | 68 | 128 | 0.0 | 0.0 | 0.00 | 0.00 | 0.00 | 94 | 1021.5 |
| 20260831102127 | 68 | 128 | 0.0 | 0.0 | 0.00 | 0.00 | 0.00 | 94 | 1021.6 |
| 20260831101617 | 68 | 128 | 0.0 | 0.0 | 0.00 | 0.00 | 0.00 | 94 | 1021.5 |
| 20260831101446 | 68 | 128 | 0.0 | 0.0 | 0.00 | 0.00 | 0.00 | 94 | 1021.5 |
| 20260831100614 | 68 | 128 | 0.0 | 0.0 | 0.00 | 0.00 | 0.00 | 94 | 1021.6 |
| 20260831100427 | 68 | 128 | 0.0 | 0.0 | 0.00 | 0.00 | 0.00 | 94 | 1021.5 |
| 20260831095612 | 68 | 128 | 0.0 | 0.0 | 0.00 | 0.00 | 0.00 | 94 | 1021.5 |
| 20260831095112 | 68 | 128 | 0.0 | 0.0 | 0.00 | 0.00 | 0.00 | 94 | 1021.4 |
| 20260831094610 | 68 | 128 | 0.0 | 0.0 | 0.00 | 0.00 | 0.00 | 94 | 1021.4 |
| 20260831094110 | 68 | 128 | 0.0 | 0.0 | 0.00 | 0.00 | 0.00 | 94 | 1021.3 |
| 20260831093612 | 69 | 128 | 0.0 | 0.0 | 0.00 | 0.00 | 0.00 | 94 | 1021.4 |
| 20260831093421 | 69 | 128 | 0.0 | 0.0 | 0.00 | 0.00 | 0.00 | 94 | 1021.3 |
| 20260831092618 | 69 | 128 | 0.0 | 0.0 | 0.00 | 0.00 | 0.00 | 94 | 1021.2 |
| 20260831092114 | 69 | 128 | 0.0 | 0.0 | 0.00 | 0.00 | 0.00 | 94 | 1021.3 |
| 20260831091610 | 69 | 128 | 0.0 | 0.0 | 0.00 | 0.00 | 0.00 | 93 | 1021.3 |
| 20260831091110 | 69 | 128 | 0.0 | 0.0 | 0.00 | 0.00 | 0.00 | 93 | 1021.2 |
| 20260831090607 | 69 | 128 | 0.0 | 0.0 | 0.00 | 0.00 | 0.00 | 93 | 1021.2 |
| 20260831090104 | 69 | 128 | 0.0 | 0.0 | 0.00 | 0.00 | 0.00 | 93 | 1021.2 |
| 20260831085605 | 69 | 128 | 0.0 | 0.0 | 0.00 | 0.00 | 0.00 | 93 | 1021.2 |
| 20260831085105 | 69 | 128 | 0.0 | 0.0 | 0.00 | 0.00 | 0.00 | 93 | 1021.2 |
| 20260831084602 | 69 | 128 | 0.0 | 0.0 | 0.00 | 0.00 | 0.00 | 93 | 1021.2 |
| 20260831084106 | 69 | 128 | 0.0 | 0.0 | 0.00 | 0.00 | 0.00 | 93 | 1021.1 |
| 20260831083604 | 69 | 128 | 0.0 | 0.0 | 0.00 | 0.00 | 0.00 | 93 | 1021.2 |
| 20260831083100 | 69 | 128 | 0.0 | 0.0 | 0.00 | 0.00 | 0.00 | 93 | 1021.2 |
| 20260831082558 | 69 | 128 | 0.0 | 0.0 | 0.00 | 0.00 | 0.00 | 93 | 1021.2 |
| 20260831082057 | 69 | 128 | 0.0 | 0.0 | 0.00 | 0.00 | 0.00 | 93 | 1021.2 |
| 20260831081555 | 69 | 128 | 0.0 | 0.0 | 0.00 | 0.00 | 0.00 | 93 | 1021.1 |
| 20260831081051 | 69 | 128 | 0.0 | 0.0 | 0.00 | 0.00 | 0.00 | 93 | 1021.0 |
| 20260831080550 | 69 | 128 | 0.0 | 0.0 | 0.00 | 0.00 | 0.00 | 93 | 1021.1 |
| 20260831080359 | 69 | 128 | 0.0 | 0.0 | 0.00 | 0.00 | 0.00 | 93 | 1021.1 |
| 20260831075554 | 69 | 128 | 0.0 | 0.0 | 0.00 | 0.00 | 0.00 | 93 | 1021.2 |
| 20260831075050 | 69 | 128 | 0.0 | 0.0 | 0.00 | 0.00 | 0.00 | 93 | 1021.1 |
| 20260831074550 | 69 | 128 | 0.0 | 0.0 | 0.00 | 0.00 | 0.00 | 93 | 1021.2 |
| 20260831074048 | 69 | 128 | 0.0 | 0.0 | 0.00 | 0.00 | 0.00 | 93 | 1021.2 |
| 20260831073547 | 70 | 128 | 0.0 | 0.0 | 0.00 | 0.00 | 0.00 | 92 | 1021.2 |
| 20260831073048 | 70 | 128 | 0.0 | 0.0 | 0.00 | 0.00 | 0.00 | 92 | 1021.2 |
| 20260831072548 | 70 | 128 | 0.0 | 0.0 | 0.00 | 0.00 | 0.00 | 92 | 1021.1 |
| 20260831072049 | 70 | 128 | 0.0 | 0.0 | 0.00 | 0.00 | 0.00 | 92 | 1021.1 |
| 20260831071549 | 70 | 128 | 0.0 | 0.0 | 0.00 | 0.00 | 0.00 | 92 | 1021.2 |
| 20260831071047 | 70 | 128 | 0.0 | 0.0 | 0.00 | 0.00 | 0.00 | 92 | 1021.2 |
| 20260831070632 | 70 | 128 | 0.0 | 0.0 | 0.00 | 0.00 | 0.00 | 92 | 1021.3 |
| 20260831070612 | 70 | 128 | 0.0 | 0.0 | 0.00 | 0.00 | 0.00 | 92 | 1021.2 |
| 20260831070202 | 70 | 128 | 0.0 | 0.0 | 0.00 | 0.00 | 0.00 | 92 | 1021.3 |
| 20260831065045 | 70 | 128 | 0.0 | 0.0 | 0.00 | 0.00 | 0.00 | 92 | 1021.4 |
| 20260831064546 | 70 | 128 | 0.0 | 0.0 | 0.00 | 0.00 | 0.00 | 92 | 1021.4 |
| 20260831064044 | 70 | 128 | 0.0 | 0.0 | 0.00 | 0.00 | 0.00 | 92 | 1021.4 |
| 20260831063541 | 70 | 128 | 0.0 | 0.0 | 0.00 | 0.00 | 0.00 | 92 | 1021.4 |
| 20260831063040 | 70 | 128 | 0.0 | 0.0 | 0.00 | 0.00 | 0.00 | 92 | 1021.4 |
| 20260831062542 | 70 | 128 | 0.0 | 0.0 | 0.00 | 0.00 | 0.00 | 91 | 1021.4 |
| 20260831062040 | 70 | 128 | 0.0 | 0.0 | 0.00 | 0.00 | 0.00 | 92 | 1021.4 |
| 20260831061541 | 71 | 128 | 0.0 | 0.0 | 0.00 | 0.00 | 0.00 | 91 | 1021.5 |
| 20260831061041 | 71 | 128 | 0.0 | 0.0 | 0.00 | 0.00 | 0.00 | 91 | 1021.5 |
| 20260831060540 | 71 | 128 | 0.0 | 0.0 | 0.00 | 0.00 | 0.00 | 91 | 1021.6 |
| 20260831060040 | 71 | 128 | 0.0 | 0.0 | 0.00 | 0.00 | 0.00 | 91 | 1021.6 |
| 20260831055540 | 71 | 128 | 0.0 | 0.0 | 0.00 | 0.00 | 0.00 | 91 | 1021.5 |
| 20260831055039 | 71 | 128 | 0.0 | 0.0 | 0.00 | 0.00 | 0.00 | 91 | 1021.4 |
| 20260831054540 | 71 | 128 | 0.0 | 0.0 | 0.00 | 0.00 | 0.00 | 90 | 1021.4 |
| 20260831054039 | 71 | 128 | 0.0 | 0.0 | 0.00 | 0.00 | 0.00 | 91 | 1021.4 |
| 20260831053539 | 71 | 128 | 0.0 | 0.0 | 0.00 | 0.00 | 0.00 | 90 | 1021.4 |
| 20260831053040 | 71 | 128 | 0.0 | 0.0 | 0.00 | 0.00 | 0.00 | 90 | 1021.4 |
| 20260831052540 | 71 | 128 | 0.0 | 0.0 | 0.00 | 0.00 | 0.00 | 90 | 1021.4 |
| 20260831052042 | 71 | 128 | 0.0 | 0.0 | 0.00 | 0.00 | 0.00 | 90 | 1021.5 |
| 20260831051540 | 71 | 128 | 0.0 | 0.0 | 0.00 | 0.00 | 0.00 | 90 | 1021.5 |
| 20260831051041 | 71 | 128 | 0.0 | 0.0 | 0.00 | 0.00 | 0.00 | 90 | 1021.4 |
| 20260831050850 | 71 | 128 | 0.0 | 0.0 | 0.00 | 0.00 | 0.00 | 90 | 1021.4 |
| 20260831050037 | 71 | 128 | 0.0 | 0.0 | 0.00 | 0.00 | 0.00 | 90 | 1021.3 |
| 20260831045543 | 72 | 128 | 0.0 | 0.0 | 0.00 | 0.00 | 0.00 | 90 | 1021.4 |
| 20260831045030 | 72 | 128 | 0.0 | 0.0 | 0.00 | 0.00 | 0.00 | 90 | 1021.5 |
| 20260831044546 | 72 | 128 | 0.0 | 0.0 | 0.00 | 0.00 | 0.00 | 90 | 1021.6 |
| 20260831044542 | 72 | 128 | 0.0 | 0.0 | 0.00 | 0.00 | 0.00 | 90 | 1021.6 |
| 20260831044532 | 72 | 128 | 0.0 | 0.0 | 0.00 | 0.00 | 0.00 | 90 | 1021.6 |
| 20260831043232 | 72 | 128 | 0.0 | 0.0 | 0.00 | 0.00 | 0.00 | 90 | 1021.6 |
| 20260831043128 | 72 | 128 | 0.0 | 0.0 | 0.00 | 0.00 | 0.00 | 90 | 1021.7 |
| 20260831042002 | 72 | 128 | 0.0 | 0.0 | 0.00 | 0.00 | 0.00 | 89 | 1021.8 |
| 20260831041459 | 73 | 128 | 0.0 | 0.0 | 0.00 | 0.00 | 0.00 | 89 | 1021.7 |
| 20260831040958 | 73 | 128 | 0.0 | 0.0 | 0.00 | 0.00 | 0.00 | 88 | 1021.8 |
| 20260831040457 | 73 | 128 | 0.0 | 0.0 | 0.00 | 0.00 | 0.00 | 88 | 1021.7 |
| 20260831035954 | 73 | 128 | 0.0 | 0.0 | 0.00 | 0.00 | 0.00 | 88 | 1021.7 |
| 20260831035452 | 73 | 128 | 0.0 | 0.0 | 0.00 | 0.00 | 0.00 | 88 | 1021.8 |
| 20260831035313 | 73 | 128 | 0.0 | 0.0 | 0.00 | 0.00 | 0.00 | 88 | 1021.7 |
| 20260831034948 | 73 | 128 | 0.0 | 0.0 | 0.00 | 0.00 | 0.00 | 87 | 1021.8 |
| 20260831034943 | 73 | 128 | 0.0 | 0.0 | 0.00 | 0.00 | 0.00 | 88 | 1021.7 |
| 20260831033445 | 74 | 128 | 0.0 | 0.0 | 0.00 | 0.00 | 0.00 | 87 | 1021.9 |
| 20260831032943 | 74 | 128 | 0.0 | 0.0 | 0.00 | 0.00 | 0.00 | 87 | 1021.9 |
| 20260831032440 | 74 | 128 | 0.0 | 0.0 | 0.00 | 0.00 | 0.00 | 86 | 1022.0 |
| 20260831031940 | 74 | 128 | 0.0 | 0.0 | 0.00 | 0.00 | 0.00 | 86 | 1022.1 |
| 20260831031441 | 74 | 128 | 0.0 | 0.0 | 0.00 | 0.00 | 0.00 | 86 | 1022.1 |
| 20260831030938 | 74 | 128 | 0.0 | 0.0 | 0.00 | 0.00 | 0.00 | 86 | 1021.9 |
| 20260831030439 | 74 | 128 | 0.0 | 0.0 | 0.00 | 0.00 | 0.00 | 86 | 1021.9 |
| 20260831025945 | 74 | 128 | 0.0 | 0.0 | 0.00 | 0.00 | 0.00 | 85 | 1021.8 |
| 20260831025438 | 75 | 128 | 0.0 | 0.0 | 0.00 | 0.00 | 0.00 | 85 | 1021.9 |
| 20260831024938 | 75 | 128 | 0.0 | 0.0 | 0.00 | 0.00 | 0.00 | 85 | 1021.9 |
| 20260831024437 | 75 | 128 | 0.0 | 0.0 | 0.00 | 0.00 | 0.00 | 85 | 1022.0 |
| 20260831023938 | 75 | 128 | 0.0 | 0.0 | 0.00 | 0.00 | 0.00 | 84 | 1022.1 |
| 20260831023436 | 75 | 128 | 0.0 | 0.0 | 0.00 | 0.00 | 0.00 | 84 | 1022.0 |
| 20260831022938 | 75 | 128 | 0.0 | 0.0 | 0.00 | 0.00 | 0.00 | 84 | 1022.0 |
| 20260831022433 | 76 | 128 | 0.0 | 0.0 | 0.00 | 0.00 | 0.00 | 84 | 1022.0 |
| 20260831021932 | 76 | 128 | 0.0 | 0.0 | 0.00 | 0.00 | 0.00 | 83 | 1022.1 |
| 20260831021433 | 76 | 128 | 0.0 | 0.0 | 0.00 | 0.00 | 0.00 | 83 | 1022.0 |
| 20260831020930 | 76 | 128 | 0.0 | 0.0 | 0.00 | 0.00 | 0.00 | 83 | 1022.0 |
| 20260831020429 | 76 | 128 | 0.0 | 0.0 | 0.00 | 0.00 | 0.00 | 82 | 1021.9 |
| 20260831015932 | 76 | 128 | 0.0 | 0.0 | 0.00 | 0.00 | 0.00 | 83 | 1021.8 |
| 20260831015429 | 76 | 128 | 0.0 | 0.0 | 0.00 | 0.00 | 0.00 | 82 | 1021.9 |
| 20260831014933 | 76 | 128 | 0.0 | 0.0 | 0.00 | 0.00 | 0.00 | 82 | 1021.9 |
| 20260831014429 | 77 | 128 | 0.0 | 0.0 | 0.00 | 0.00 | 0.00 | 82 | 1021.9 |
| 20260831013928 | 77 | 128 | 0.0 | 0.0 | 0.00 | 0.00 | 0.00 | 81 | 1022.0 |
| 20260831013429 | 77 | 128 | 0.0 | 0.0 | 0.00 | 0.00 | 0.00 | 81 | 1021.9 |
| 20260831012929 | 77 | 128 | 0.0 | 0.0 | 0.00 | 0.00 | 0.00 | 81 | 1021.9 |
| 20260831012428 | 77 | 128 | 0.0 | 1.0 | 0.00 | 0.00 | 0.00 | 82 | 1022.0 |
| 20260831012300 | 77 | 128 | 0.0 | 1.0 | 0.00 | 0.00 | 0.00 | 81 | 1022.0 |
| 20260831011430 | 77 | 128 | 1.0 | 1.0 | 0.00 | 0.00 | 0.00 | 81 | 1021.8 |
| 20260831011246 | 77 | 128 | 1.0 | 1.0 | 0.00 | 0.00 | 0.00 | 81 | 1021.7 |
| 20260831010429 | 77 | 128 | 1.0 | 1.0 | 0.00 | 0.00 | 0.00 | 80 | 1021.7 |
| 20260831005924 | 78 | 128 | 1.0 | 1.0 | 0.00 | 0.00 | 0.00 | 80 | 1021.8 |
| 20260831005740 | 78 | 128 | 1.0 | 1.0 | 0.00 | 0.00 | 0.00 | 80 | 1021.6 |
| 20260831005226 | 78 | 128 | 0.0 | 1.0 | 0.00 | 0.00 | 0.00 | 79 | 1021.7 |
| 20260831004426 | 78 | 128 | 1.0 | 2.0 | 0.00 | 0.00 | 0.00 | 79 | 1021.6 |
| 20260831003923 | 78 | 128 | 1.0 | 2.0 | 0.00 | 0.00 | 0.00 | 78 | 1021.5 |
| 20260831003424 | 79 | 128 | 0.0 | 1.0 | 0.00 | 0.00 | 0.00 | 77 | 1021.5 |
| 20260831002928 | 80 | 128 | 0.0 | 1.0 | 0.00 | 0.00 | 0.00 | 76 | 1021.5 |
| 20260831002423 | 80 | 128 | 0.0 | 1.0 | 0.00 | 0.00 | 0.00 | 76 | 1021.4 |
| 20260831001928 | 80 | 128 | 0.0 | 1.0 | 0.00 | 0.00 | 0.00 | 75 | 1021.3 |
| 20260831001421 | 80 | 128 | 0.0 | 0.0 | 0.00 | 0.00 | 0.00 | 75 | 1021.3 |
| 20260831000912 | 80 | 128 | 0.0 | 1.0 | 0.00 | 0.00 | 0.00 | 75 | 1021.2 |
| 20260831000405 | 80 | 128 | 0.0 | 1.0 | 0.00 | 0.00 | 0.00 | 75 | 1021.3 |
| 20260830235905 | 80 | 128 | 0.0 | 1.0 | 0.00 | 0.00 | 0.00 | 75 | 1021.3 |
| 20260830235404 | 81 | 128 | 1.0 | 1.0 | 0.00 | 0.00 | 0.00 | 74 | 1021.3 |
| 20260830234904 | 81 | 128 | 1.0 | 1.0 | 0.00 | 0.00 | 0.00 | 74 | 1021.3 |
| 20260830234405 | 81 | 128 | 1.0 | 1.0 | 0.00 | 0.00 | 0.00 | 73 | 1021.3 |
| 20260830233901 | 81 | 128 | 1.0 | 2.0 | 0.00 | 0.00 | 0.00 | 73 | 1021.4 |
| 20260830233404 | 82 | 128 | 1.0 | 2.0 | 0.00 | 0.00 | 0.00 | 72 | 1021.4 |
| 20260830232901 | 82 | 128 | 1.0 | 2.0 | 0.00 | 0.00 | 0.00 | 72 | 1021.4 |
| 20260830232406 | 82 | 128 | 1.0 | 2.0 | 0.00 | 0.00 | 0.00 | 71 | 1021.4 |
| 20260830231904 | 82 | 128 | 1.0 | 2.0 | 0.00 | 0.00 | 0.00 | 70 | 1021.3 |
| 20260830231404 | 83 | 128 | 1.0 | 2.0 | 0.00 | 0.00 | 0.00 | 70 | 1021.3 |
| 20260830230904 | 83 | 128 | 1.0 | 2.0 | 0.00 | 0.00 | 0.00 | 70 | 1021.3 |
| 20260830230711 | 83 | 128 | 1.0 | 2.0 | 0.00 | 0.00 | 0.00 | 70 | 1021.3 |
| 20260830225905 | 83 | 130 | 1.0 | 2.0 | 0.00 | 0.00 | 0.00 | 70 | 1021.3 |
| 20260830225405 | 83 | 109 | 1.0 | 2.0 | 0.00 | 0.00 | 0.00 | 70 | 1021.2 |
| 20260830224901 | 83 | 68 | 1.0 | 2.0 | 0.00 | 0.00 | 0.00 | 69 | 1021.3 |
| 20260830224402 | 83 | 127 | 0.0 | 2.0 | 0.00 | 0.00 | 0.00 | 70 | 1021.3 |
| 20260830224231 | 83 | 127 | 0.0 | 1.0 | 0.00 | 0.00 | 0.00 | 69 | 1021.3 |
| 20260830223401 | 83 | 127 | 0.0 | 1.0 | 0.00 | 0.00 | 0.00 | 69 | 1021.3 |
| 20260830222859 | 83 | 127 | 1.0 | 2.0 | 0.00 | 0.00 | 0.00 | 69 | 1021.4 |
| 20260830222719 | 83 | 127 | 1.0 | 2.0 | 0.00 | 0.00 | 0.00 | 69 | 1021.3 |
| 20260830221851 | 83 | 127 | 1.0 | 2.0 | 0.00 | 0.00 | 0.00 | 68 | 1021.3 |
| 20260830221728 | 84 | 127 | 1.0 | 2.0 | 0.00 | 0.00 | 0.00 | 68 | 1021.2 |
| 20260830220843 | 84 | 127 | 1.0 | 2.0 | 0.00 | 0.00 | 0.00 | 68 | 1021.2 |
| 20260830220409 | 85 | 127 | 2.0 | 4.0 | 0.00 | 0.00 | 0.00 | 66 | 1021.2 |
| 20260830220357 | 85 | 119 | 2.0 | 3.0 | 0.00 | 0.00 | 0.00 | 67 | 1021.2 |
| 20260830220350 | 84 | 115 | 1.0 | 2.0 | 0.00 | 0.00 | 0.00 | 68 | 1021.2 |
| 20260830214844 | 85 | 135 | 1.0 | 4.0 | 0.00 | 0.00 | 0.00 | 67 | 1021.2 |
| 20260830214346 | 85 | 147 | 0.0 | 2.0 | 0.00 | 0.00 | 0.00 | 66 | 1021.2 |
| 20260830213840 | 86 | 0 | 0.0 | 1.0 | 0.00 | 0.00 | 0.00 | 66 | 1021.2 |
| 20260830213335 | 86 | 0 | 1.0 | 2.0 | 0.00 | 0.00 | 0.00 | 64 | 1021.3 |
| 20260830212835 | 86 | 0 | 1.0 | 3.0 | 0.00 | 0.00 | 0.00 | 64 | 1021.4 |
| 20260830212335 | 86 | 0 | 1.0 | 3.0 | 0.00 | 0.00 | 0.00 | 63 | 1021.5 |
| 20260830211833 | 86 | 226 | 1.0 | 3.0 | 0.00 | 0.00 | 0.00 | 65 | 1021.3 |
| 20260830211335 | 85 | 107 | 0.0 | 2.0 | 0.00 | 0.00 | 0.00 | 67 | 1021.4 |
| 20260830210830 | 85 | 194 | 1.0 | 2.0 | 0.00 | 0.00 | 0.00 | 66 | 1021.4 |
| 20260830210331 | 85 | 215 | 1.0 | 2.0 | 0.00 | 0.00 | 0.00 | 66 | 1021.5 |
| 20260830210142 | 85 | 236 | 1.0 | 2.0 | 0.00 | 0.00 | 0.00 | 64 | 1021.4 |
| 20260830205329 | 85 | 103 | 1.0 | 3.0 | 0.00 | 0.00 | 0.00 | 66 | 1021.4 |
| 20260830204838 | 85 | 122 | 2.0 | 3.0 | 0.00 | 0.00 | 0.00 | 64 | 1021.5 |
| 20260830204332 | 86 | 130 | 2.0 | 3.0 | 0.00 | 0.00 | 0.00 | 65 | 1021.4 |
| 20260830203829 | 85 | 133 | 2.0 | 3.0 | 0.00 | 0.00 | 0.00 | 65 | 1021.3 |
| 20260830203324 | 85 | 91 | 2.0 | 4.0 | 0.00 | 0.00 | 0.00 | 67 | 1021.3 |
| 20260830202817 | 86 | 79 | 2.0 | 4.0 | 0.00 | 0.00 | 0.00 | 64 | 1021.4 |
| 20260830202649 | 86 | 144 | 1.0 | 3.0 | 0.00 | 0.00 | 0.00 | 64 | 1021.4 |
| 20260830201811 | 87 | 119 | 1.0 | 3.0 | 0.00 | 0.00 | 0.00 | 64 | 1021.6 |
| 20260830201311 | 86 | 119 | 1.0 | 3.0 | 0.00 | 0.00 | 0.00 | 64 | 1021.7 |
| 20260830200811 | 86 | 115 | 1.0 | 3.0 | 0.00 | 0.00 | 0.00 | 63 | 1021.7 |
| 20260830200308 | 87 | 43 | 1.0 | 3.0 | 0.00 | 0.00 | 0.00 | 62 | 1021.8 |
| 20260830195807 | 87 | 142 | 1.0 | 2.0 | 0.00 | 0.00 | 0.00 | 60 | 1021.9 |
| 20260830195311 | 87 | 118 | 1.0 | 2.0 | 0.00 | 0.00 | 0.00 | 60 | 1021.9 |
| 20260830194811 | 86 | 61 | 1.0 | 2.0 | 0.00 | 0.00 | 0.00 | 61 | 1022.0 |
| 20260830194626 | 86 | 132 | 1.0 | 2.0 | 0.00 | 0.00 | 0.00 | 62 | 1022.1 |
| 20260830194125 | 85 | 136 | 1.0 | 3.0 | 0.00 | 0.00 | 0.00 | 62 | 1022.2 |
| 20260830193307 | 85 | 69 | 1.0 | 3.0 | 0.00 | 0.00 | 0.00 | 63 | 1022.2 |
| 20260830192806 | 85 | 80 | 1.0 | 3.0 | 0.00 | 0.00 | 0.00 | 65 | 1022.3 |
| 20260830192305 | 85 | 57 | 1.0 | 2.0 | 0.00 | 0.00 | 0.00 | 64 | 1022.3 |
| 20260830191801 | 86 | 114 | 1.0 | 2.0 | 0.00 | 0.00 | 0.00 | 61 | 1022.4 |
| 20260830191301 | 87 | 36 | 1.0 | 4.0 | 0.00 | 0.00 | 0.00 | 61 | 1022.5 |
| 20260830191129 | 88 | 48 | 1.0 | 4.0 | 0.00 | 0.00 | 0.00 | 58 | 1022.5 |
| 20260830190305 | 88 | 153 | 1.0 | 3.0 | 0.00 | 0.00 | 0.00 | 61 | 1022.5 |
| 20260830185805 | 86 | 77 | 1.0 | 3.0 | 0.00 | 0.00 | 0.00 | 60 | 1022.6 |
| 20260830185636 | 87 | 176 | 1.0 | 2.0 | 0.00 | 0.00 | 0.00 | 60 | 1022.7 |
| 20260830184756 | 86 | 65 | 1.0 | 3.0 | 0.00 | 0.00 | 0.00 | 59 | 1022.7 |
| 20260830184248 | 85 | 29 | 2.0 | 4.0 | 0.00 | 0.00 | 0.00 | 61 | 1022.9 |
| 20260830183744 | 85 | 220 | 2.0 | 4.0 | 0.00 | 0.00 | 0.00 | 61 | 1023.0 |
| 20260830183233 | 85 | 140 | 1.0 | 2.0 | 0.00 | 0.00 | 0.00 | 64 | 1023.1 |
| 20260830182734 | 85 | 114 | 1.0 | 2.0 | 0.00 | 0.00 | 0.00 | 64 | 1023.2 |
| 20260830182234 | 84 | 324 | 1.0 | 2.0 | 0.00 | 0.00 | 0.00 | 67 | 1023.2 |
| 20260830181731 | 83 | 29 | 1.0 | 2.0 | 0.00 | 0.00 | 0.00 | 66 | 1023.4 |
| 20260830181229 | 83 | 9 | 1.0 | 2.0 | 0.00 | 0.00 | 0.00 | 68 | 1023.5 |
| 20260830180732 | 83 | 92 | 1.0 | 3.0 | 0.00 | 0.00 | 0.00 | 68 | 1023.6 |
| 20260830180232 | 83 | 51 | 1.0 | 3.0 | 0.00 | 0.00 | 0.00 | 68 | 1023.7 |
| 20260830175732 | 84 | 55 | 1.0 | 2.0 | 0.00 | 0.00 | 0.00 | 68 | 1023.9 |
| 20260830175229 | 83 | 51 | 1.0 | 3.0 | 0.00 | 0.00 | 0.00 | 68 | 1023.8 |
| 20260830174729 | 83 | 140 | 1.0 | 3.0 | 0.00 | 0.00 | 0.00 | 68 | 1023.9 |
| 20260830174229 | 84 | 147 | 1.0 | 3.0 | 0.00 | 0.00 | 0.00 | 67 | 1023.9 |
| 20260830173729 | 83 | 137 | 1.0 | 2.0 | 0.00 | 0.00 | 0.00 | 70 | 1023.9 |
| 20260830173230 | 83 | 48 | 1.0 | 2.0 | 0.00 | 0.00 | 0.00 | 69 | 1023.9 |
| 20260830172727 | 83 | 126 | 1.0 | 2.0 | 0.00 | 0.00 | 0.00 | 68 | 1024.0 |
| 20260830172228 | 83 | 54 | 1.0 | 3.0 | 0.00 | 0.00 | 0.00 | 69 | 1024.1 |
| 20260830171726 | 83 | 219 | 1.0 | 3.0 | 0.00 | 0.00 | 0.00 | 68 | 1024.0 |
| 20260830171227 | 83 | 55 | 1.0 | 4.0 | 0.00 | 0.00 | 0.00 | 69 | 1024.1 |
| 20260830170732 | 84 | 34 | 1.0 | 4.0 | 0.00 | 0.00 | 0.00 | 68 | 1024.2 |
| 20260830170225 | 84 | 49 | 1.0 | 3.0 | 0.00 | 0.00 | 0.00 | 67 | 1024.3 |
| 20260830165725 | 85 | 27 | 1.0 | 3.0 | 0.00 | 0.00 | 0.00 | 67 | 1024.4 |
| 20260830165229 | 83 | 119 | 2.0 | 4.0 | 0.00 | 0.00 | 0.00 | 69 | 1024.4 |
| 20260830164725 | 82 | 135 | 2.0 | 4.0 | 0.00 | 0.00 | 0.00 | 72 | 1024.3 |
| 20260830164224 | 82 | 42 | 2.0 | 5.0 | 0.00 | 0.00 | 0.00 | 71 | 1024.2 |
| 20260830163726 | 82 | 23 | 2.0 | 5.0 | 0.00 | 0.00 | 0.00 | 71 | 1024.3 |
| 20260830163225 | 82 | 89 | 1.0 | 3.0 | 0.00 | 0.00 | 0.00 | 73 | 1024.4 |
| 20260830162726 | 81 | 156 | 1.0 | 3.0 | 0.00 | 0.00 | 0.00 | 73 | 1024.4 |
| 20260830162227 | 80 | 67 | 2.0 | 3.0 | 0.00 | 0.00 | 0.00 | 75 | 1024.7 |
| 20260830161720 | 80 | 45 | 1.0 | 3.0 | 0.00 | 0.00 | 0.00 | 75 | 1024.6 |
| 20260830161221 | 80 | 323 | 1.0 | 3.0 | 0.00 | 0.00 | 0.00 | 75 | 1024.7 |
| 20260830160722 | 80 | 211 | 1.0 | 2.0 | 0.00 | 0.00 | 0.00 | 75 | 1024.6 |
| 20260830160221 | 79 | 11 | 1.0 | 3.0 | 0.00 | 0.00 | 0.00 | 77 | 1024.6 |
| 20260830160042 | 79 | 248 | 1.0 | 5.0 | 0.00 | 0.00 | 0.00 | 77 | 1024.6 |
| 20260830155221 | 79 | 323 | 2.0 | 5.0 | 0.00 | 0.00 | 0.00 | 77 | 1024.7 |
| 20260830154721 | 79 | 220 | 1.0 | 5.0 | 0.00 | 0.00 | 0.00 | 77 | 1024.7 |
| 20260830154555 | 79 | 5 | 1.0 | 5.0 | 0.00 | 0.00 | 0.00 | 77 | 1024.7 |